Location: North Runcton
(52.7000°N, 0.4333°E)
Time: 04:24:54
(UTC+00:00)

Sich 1 - Pass Details

Date: 19 May 2025
Orbit: 574 x 603 km, 82.5° (Epoch: 13 June)

Event Time Altitude Azimuth Distance (km) Brightness Sun altitude
Rises 22:29:52 0° 353° (N) 2,841 8.1 -15.0°
Reaches altitude 10° 22:32:12 10° 1° (N) 1,930 6.7 -15.1°
Maximum altitude 22:36:15 41° 72° (ENE) 853 3.7 -15.3°
Enters shadow 22:38:23 24° 129° (SE) 1,244 4.1 -15.4°
